Regional Weather Roundup
Issued by NWS

Home | Current Version | Previous Version | Graphics & Text | Print | Product List | Glossary On
Versions: 1 2 3 4 5 6 7 8 9 10 11 12 13 14 15 16 17 18 19 20 21 22 23 24 25 26 27 28 29 30 31 32 33 34 35 36 37 38 39 40 41 42 43 44 45 46 47 48 49 50
921
ASUS45 KCYS 241210
RWRWY

WYOMING REGIONAL WEATHER ROUNDUP
NATIONAL WEATHER SERVICE CHEYENNE WY
600 AM MDT SUN JUL 24 2016

NOTE:  "FAIR" INDICATES FEW OR NO CLOUDS BELOW 12,000 FEET
WITH NO SIGNIFICANT WEATHER AND/OR OBSTRUCTIONS TO VISIBILITY.

WYZ001-241300-
YELLOWSTONE NATIONAL PARK

CITY           SKY/WX    TMP DP  RH WIND       PRES   REMARKS
LK YELLOWSTONE   N/A     35  33  92 NW3       30.36R
6HR MIN TEMP:  35; 6HR MAX TEMP:  47;

W YELLOWSTONE  NOT AVBL

$$
WYZ002>013-054>058-071-098>099-241300-
NORTHERN WYOMING

CITY           SKY/WX    TMP DP  RH WIND       PRES   REMARKS
JACKSON        FAIR      36  28  75 N9        30.29R WCI  29
CODY           FAIR      57  37  47 SW5       30.18R
GREYBULL       FAIR      62  40  44 E3        30.11R
6HR MIN TEMP:  61; 6HR MAX TEMP:  73;

WORLAND        FAIR      54  38  54 S6        30.13R
6HR MIN TEMP:  53; 6HR MAX TEMP:  71;

SHERIDAN       MOCLDY    58  44  60 S8        30.10F
6HR MIN TEMP:  54; 6HR MAX TEMP:  62;

BUFFALO        FAIR      57  38  48 CALM      30.17S
6HR MIN TEMP:  57; 6HR MAX TEMP:  66;

GILLETTE       CLOUDY    57  44  62 CALM      30.14R
6HR MIN TEMP:  51; 6HR MAX TEMP:  58;

HULETT         CLOUDY    68  43  40 SE12      30.15S
NEWCASTLE      CLOUDY    64  34  32 CALM      30.14R

$$
WYZ014>020-022>026-101>103-241300-
CENTRAL WYOMING

CITY           SKY/WX    TMP DP  RH WIND       PRES   REMARKS
BIG PINEY      FAIR      38  24  57 E7        30.30R WCI  33
6HR MIN TEMP:  37; 6HR MAX TEMP:  51;

PINEDALE       FAIR      34  28  80 NW10G16   30.32R WCI  26
DUBOIS         CLOUDY    43  21  42 NW12      30.31R HAZE
LANDER         FAIR      58  34  40 SW5       30.19R
6HR MIN TEMP:  56; 6HR MAX TEMP:  70;

RIVERTON       FAIR      57  33  40 S3        30.20R
6HR MIN TEMP:  57; 6HR MAX TEMP:  71;

CASPER         FAIR      50  37  61 N9        30.18R
6HR MIN TEMP:  50; 6HR MAX TEMP:  67;

DOUGLAS          N/A    N/A N/A N/A MISG      30.13R

$$
WYZ021-027>030-104>119-241300-
SOUTHERN WYOMING

CITY           SKY/WX    TMP DP  RH WIND       PRES   REMARKS
EVANSTON       FAIR      51  24  34 SE7       30.29R
6HR MIN TEMP:  50; 6HR MAX TEMP:  63;

KEMMERER         N/A     45  28  53 NW12      30.31R
ROCK SPRINGS   FAIR      58  33  39 SE10      30.28R
6HR MIN TEMP:  54; 6HR MAX TEMP:  65;

DIXON          FAIR      48  40  72 SE3       30.29R
RAWLINS        FAIR      55  20  25 CALM      30.25R
6HR MIN TEMP:  53; 6HR MAX TEMP:  69;

SARATOGA       FAIR      52  36  54 S8        30.28R
LARAMIE        FAIR      56  43  61 CALM      30.27R
6HR MIN TEMP:  51; 6HR MAX TEMP:  70;

CHEYENNE       FAIR      67  46  47 SE13      30.17F
6HR MIN TEMP:  64; 6HR MAX TEMP:  75; 6HR PCP: TRACE;

TORRINGTON     FAIR      64  55  72 E10       30.07R
6HR MIN TEMP:  63; 6HR MAX TEMP:  72;

PINE BLUFFS    PTSUNNY   63  55  77 SE8       30.18R

$$




USA.gov is the U.S. government's official web portal to all federal, state and local government web resources and services.